www.pogodaiklimat.ru

Погода и климат >> Архив погоды >> Россия >> Ульяновская область >> Димитровград


ПОГОДА в Димитровграде

АРХИВ ПОГОДЫ в Димитровграде

Время (UTC), дата Ветер
(напр.,м/с)
 
Видим.   Явления Облачность Т
(С)
Тd
(С)
f
(%)
Тe
(С)
Тes
(С)
Комфортность P
(гПа)
Po
(гПа)
Тmin
(С)
Tmax
(С)
R
(мм)
R24
(мм)
S
(см)
06 16.08 ЮВ 1 10 км 5/0
[Cc]
+24.4 +15.7 58 +27 +36 жарко 1015.6 1007.2
09 16.08 ЮЗ 2 10 км 3/0
[Cc]
+29.1 +13.7 39 +31 +43 жарко 1014.5 1006.3
12 16.08 Ю 2 10 км 8/0
[Ci]
+29.0 +14.3 41 +31 +37 жарко 1014.4 1006.1
15 16.08 ЮВ 1 10 км 5/0
[Ci]
+26.8 +15.3 49 +30 +30 душно 1013.6 1005.3 +29.3
18 16.08 С 1 10 км 6/0
[Ac cast Cs]
+19.1 +16.6 85 +22 +22 комфорт 1014.1 1005.6
21 16.08 В 1 10 км 8/0
[Ac lent]
+18.8 +15.9 83 +21 +21 комфорт 1014.0 1005.4
00 17.08 В 1 10 км 8/0
[Ac lent]
+19.9 +14.5 71 +23 +23 комфорт 1014.0 1005.4
03 17.08 В 1 10 км 8/0
[Ac lent Ci fib]
+19.4 +14.7 74 +22 +23 комфорт 1013.9 1005.4 +17.3
06 17.08 штиль 0 10 км 10/0
[Ac und]
+22.4 +15.3 64 +26 +29 жарко 1014.7 1006.2
09 17.08 Ю 1 10 км 9/8 870 м
[Sc Ci sp]
+25.7 +16.2 56 +29 +32 душно 1015.3 1006.9
12 17.08 СВ 1 10 км 10/0
[Ac und]
+27.2 +17.0 54 +31 +33 душно 1015.0 1006.7
15 17.08 СВ 1 10 км 10/0
[Ac und]
+24.6 +18.1 67 +29 +29 душно 1014.9 1006.5 +27.3
18 17.08 штиль 0 10 км 8/0
[Ci sp]
+22.4 +18.0 76 +27 +27 душно 1014.9 1006.5
21 17.08 С 1 10 км 8/0
[Ci sp]
+17.1 +16.3 95 +18 +18 тепло 1014.6 1006.0
00 18.08 В 1 10 км 8/0
[Ci fib]
+20.4 +14.8 70 +24 +24 комфорт 1014.6 1006.0
03 18.08 С 1 10 км в посл. час ливневой дождь 10/10 840 м
[Cb cap]
+18.0 +16.5 91 +19 +19 тепло 1015.3 1006.7 +17.0 0.0
06 18.08 штиль 0 10 км {ливн. осадки} 10/10 800 м
[Cb cap]
+22.2 +16.2 69 +26 +26 душно 1015.5 1007.0
09 18.08 В 2 10 км 8/4 900 м
[Sc diur, vesp Ac cuf Cc]
+28.6 +17.3 50 +33 +37 очень
душно
1015.4 1007.1
12 18.08 Ю 1 10 км 8/3 600 м
[Sc diur, vesp Ac cast Ci sp]
+27.6 +10.7 35 +28 +32 жарко 1016.8 1008.4
15 18.08 ЮВ 1 10 км 9/4 930 м
[Sc Ac cuf]
+24.6 +11.1 43 +26 +26 жарко 1017.3 1008.9 +30.7
18 18.08 штиль 0 10 км 10/0
[Ac und]
+20.1 +14.4 70 +22 +22 комфорт 1018.0 1009.5
21 18.08 штиль 0 10 км 10/0
[Cs]
+16.4 +15.0 91 +16 +16 тепло 1018.1 1009.4
00 19.08 штиль 0 10 км 10/3 600 м
[Sc Cs]
+16.9 +14.5 86 +17 +17 тепло 1018.5 1009.9
03 19.08 В 1 10 км в посл. час ливневой дождь 10/10 840 м
[Cb cap]
+18.6 +13.8 74 +20 +20 тепло 1018.6 1010.0 +16.4 0.3
06 19.08 В 2 10 км {ливн. осадки} 9/9 900 м
[Sc]
+23.1 +15.6 63 +27 +28 душно 1018.8 1010.3
09 19.08 Ю 1 10 км 5/5 870 м
[Sc]
+30.7 +14.6 38 +33 +40 душно 1018.3 1010.0
12 19.08 ЮЗ 1 10 км 8/8 840 м
[Cu Sc]
+30.7 +14.1 36 +32 +34 жарко 1018.1 1009.8
15 19.08 штиль 0 10 км 4/4 870 м
[Sc]
+25.8 +17.2 59 +30 +30 душно 1018.0 1009.6 +31.5
18 19.08 СЗ 1 10 км 3/0
[Ac cast]
+18.8 +16.7 88 +21 +21 комфорт 1018.0 1009.4
21 19.08 СЗ 1 10 км ясно +18.3 +16.1 87 +20 +20 тепло 1017.7 1009.0
00 20.08 СЗ 1 10 км 6/6 900 м
[Sc]
+18.8 +16.5 86 +21 +21 комфорт 1018.0 1009.4
03 20.08 З 1 10 км 4/4 870 м
[Sc]
+18.1 +16.6 91 +19 +20 тепло 1019.0 1010.3 +16.5
06 20.08 СЗ 2 10 км 4/0
[Ac trans]
+24.5 +18.3 68 +29 +35 душно 1019.3 1010.9
09 20.08 З 1 10 км ясно +28.2 +17.5 52 +32 +46 душно 1019.2 1010.9
12 20.08 С 2 10 км ясно +27.8 +15.3 46 +30 +37 жарко 1019.5 1011.1
15 20.08 СЗ 1 10 км ясно +24.9 +14.9 54 +28 +28 жарко 1019.6 1011.1 +28.7
18 20.08 СЗ 1 10 км ясно +19.2 +15.8 81 +22 +22 комфорт 1020.5 1011.9
21 20.08 СЗ 1 10 км ясно +17.4 +15.3 87 +18 +18 тепло 1020.6 1011.9
00 21.08 СЗ 1 10 км ясно +15.4 +14.4 94 +16 +16 тепло 1021.2 1012.5
03 21.08 СЗ 1 10 км ясно +16.2 +14.9 92 +17 +18 тепло 1021.5 1012.8 +14.7
06 21.08 С 2 10 км 3/3 600 м
[Cu med, cong]
+23.3 +16.1 64 +28 +33 душно 1022.1 1013.6
09 21.08 С 2 10 км 4/4 840 м
[Cu hum]
+25.4 +15.6 55 +29 +36 душно 1021.7 1013.3
12 21.08 С 3 10 км 3/3 600 м
[Cu hum]
+26.6 +14.0 46 +29 +32 жарко 1021.2 1012.8
15 21.08 С 2 10 км 1/0
[Ci fib]
+24.3 +14.5 54 +27 +27 жарко 1021.6 1013.1 +27.2
18 21.08 СЗ 1 10 км ясно +18.4 +15.7 84 +20 +20 тепло 1022.1 1013.4
21 21.08 СЗ 1 10 км ясно +15.5 +14.3 93 +16 +16 тепло 1022.3 1013.6
00 22.08 СЗ 1 10 км ясно +14.1 +13.3 95 +14 +14 тепло 1022.9 1014.1
03 22.08 СЗ 1 10 км ясно +15.0 +14.0 94 +15 +16 по сезону 1023.2 1014.4 +13.3
06 22.08 ЮВ 1 10 км 3/1 600 м
[Cu med, cong Ci fib]
+24.0 +16.1 61 +27 +35 жарко 1022.8 1014.4
09 22.08 В 1 10 км 4/3 600 м
[Cu med, cong Ci fib]
+25.9 +14.8 50 +28 +38 жарко 1021.9 1013.5
12 22.08 СВ 2 10 км 4/3 600 м
[Cu med, cong Ci fib]
+27.1 +13.9 44 +29 +33 жарко 1021.1 1012.7
15 22.08 В 1 10 км 3/0
[Ci fib]
+25.6 +14.8 51 +28 +29 жарко 1020.5 1012.1 +28.0
18 22.08 СЗ 1 10 км ясно +18.2 +16.9 92 +20 +20 тепло 1020.8 1012.2
21 22.08 СЗ 1 10 км ясно +15.7 +14.8 94 +16 +16 тепло 1021.0 1012.3
00 23.08 СЗ 1 10 км ясно +14.1 +13.4 96 +14 +14 тепло 1020.8 1012.0
03 23.08 штиль 0 10 км 5/5 900 м
[Cu Sc]
+15.9 +15.3 96 +16 +16 тепло 1021.3 1012.5 +13.6

 

Местоположение метеостанции Димитровград (Ульяновская область, Россия): широта 54.23 долгота 49.60 высота над уровнем моря 73 м.

В архиве по умолчанию представлена погода в Димитровграде за последнюю неделю. Архивные данные за месяц целиком и за предыдущие месяцы, начиная с января 2011 года, Вы можете получить, выбрав интересующий диапазон дат из раскрывающегося списка и нажав кнопку "Ввод!".


*Определитесь, кто Вы:
робот инопланетянин человек

Внимание! Время в таблицах - всемирное. Для получения местного времени необходимо прибавить поправку, которая равна 4 ч.

Смотрите также архив погоды в соседних городах и на ближайших метеорологических станциях:

Погода в Сенгилее (Ульяновская область, Россия) (60 км)
Погода в Чулпаново (Татарстан, Россия) (61 км)
Погода в Тольятти (Самарская область, Россия) (80 км)
Погода в Тольятти (дамба) (Самарская область, Россия) (85 км)
Погода в Новодевичьем (Самарская область, Россия) (86 км)
Погода в Ульяновске (Ульяновская область, Россия) (89 км)
Погода в Курумоче (Самарская область, Россия) (89 км)
Погода в Тетюшах (Татарстан, Россия) (96 км)
Погода в Челно-Вершинах (Самарская область, Россия) (100 км)
Погода в Аксубаево (Татарстан, Россия) (101 км)

Пояснения к столбцам:

Ветер - указаны скорость ветра в м/с - средняя за 10 мин, порывы в срок и между сроками (в фигурных скобках) и направление, откуда дует ветер: С - северный, СВ - северо-восточный, В - восточный, ЮВ - юго-восточный, Ю - южный, ЮЗ - юго-западный, З - западный, СЗ - северо-западный.
Видимость - горизонтальная дальность видимости в метрах или километрах. При видимости от 1 до 10 км при отсутствии осадков обычно наблюдается дымка, при ухудшении видимости до 1 км и менее - туман. В сухую погоду видимость может ухудшаться дымом, пылью или мглою.
Явления - указаны атмосферные явления, наблюдавшиеся в срок или в последний час перед сроком; фигурными скобками обозначены явления, наблюдавшиеся между сроками (за 1-3 часа до срока); квадратными скобками обозначены град или гололедные отложения с указанием их диаметра в мм.
Облачность - указаны через наклонную черту общая и нижняя облачность в баллах и высота нижней границы облаков в метрах; квадратными скобками обозначены формы облаков: Ci - перистые, Cs - перисто-слоистые, Cc - перисто-кучевые, Ac - высококучевые, As - высокослоистые, Sc - слоисто-кучевые, Ns - слоисто-дождевые, Cu - кучевые, Cb - кучево-дождевые. Подробнее классификацию облаков см. в Атласе облаков (PDF).
T - Температура воздуха - температура, измеренная на высоте 2 м над землей.
Td - Температура точки росы - температура, при понижении до которой содержащийся в воздухе водяной пар достигнет насыщения.
f - Относительная влажность воздуха - влажноcть воздуха, измеренная на высоте 2 м над землей.
Te - Эффективная температура - температура, которую ощущает одетый по сезону человек в тени. Характеристика душности погоды. При расчете учитывается влияние влажности воздуха и скорости ветра на теплоощущения человека.
Tes - Эффективная температура на солнце - температура, которую ощущает человек, с поправкой на солнечный нагрев. Характеристика знойности погоды. Зависит от высоты солнца над горизонтом, облачности и скорости ветра. Ночью, в пасмурную погоду, а также при ветре 12 м/с и более поправка равна нулю.
P - Атмосферное давление - приведенное к уровню моря атмосферное давление.
Po - Атмосферное давление - измеренное на уровне метеостанции атмосферное давление.
Tmin - Минимальная температура - минимум температуры воздуха на высоте 2 м над землей.
Tmax - Максимальная температура - максимум температуры воздуха на высоте 2 м над землей.
R - Количество осадков - Количество выпавших осадков за период времени, мм. При наведении курсора мыши на число - период времени, за который выпало указанное количество осадков.
R24 - Количество осадков - Количество выпавших осадков за 24 часа, мм.
S - Снежный покров - Высота снежного покрова, см. При наведении курсора мыши на число - состояние снежного покрова и степень покрытия местности в баллах.